This is the latest recevied weather packets stored in our database for station/object SP6PGH-13. If no packets are shown the sender has not sent any weather packets the latest 10 day(s).
| Time | Temp. | Humidity | Pressure | Rain* | Wind** | Luminosity | Snow |
|---|---|---|---|---|---|---|---|
| 1777043799 | 12.78° C | 63% | 1002.2 hPa | - | - | 243 W/m² | - |
| 1777042898 | 12.22° C | 62% | 1002.3 hPa | - | - | 278 W/m² | - |
| 1777041997 | 12.78° C | 62% | 1002.3 hPa | - | - | 317 W/m² | - |
| 1777041095 | 12.78° C | 63% | 1002.4 hPa | - | - | 358 W/m² | - |
| 1777040194 | 12.78° C | 62% | 1002.5 hPa | - | - | 398 W/m² | - |
| 1777039293 | 12.78° C | 62% | 1002.4 hPa | - | - | 449 W/m² | - |
| 1777038392 | 12.78° C | 63% | 1002.7 hPa | - | - | 493 W/m² | - |
| 1777037490 | 13.33° C | 62% | 1002.7 hPa | - | - | 511 W/m² | - |
| 1777036589 | 12.78° C | 62% | 1002.8 hPa | - | - | 549 W/m² | - |
| 1777035688 | 12.78° C | 63% | 1002.8 hPa | - | - | 572 W/m² | - |
| 1777034787 | 12.78° C | 64% | 1002.8 hPa | - | - | 729 W/m² | - |
| 1777033886 | 12.78° C | 65% | 1002.6 hPa | - | - | 541 W/m² | - |
| 1777032985 | 12.78° C | 64% | 1002.9 hPa | - | - | 323 W/m² | - |
| 1777032084 | 12.78° C | 61% | 1002.9 hPa | - | - | 815 W/m² | - |
| 1777031183 | 12.78° C | 64% | 1002.9 hPa | - | - | 391 W/m² | - |
| 1777030282 | 13.89° C | 59% | 1002.9 hPa | - | - | 330 W/m² | - |
| 1777029381 | 13.33° C | 62% | 1003 hPa | - | - | 616 W/m² | - |
| 1777028480 | 13.33° C | 63% | 1002.8 hPa | - | - | 750 W/m² | - |
| 1777027579 | 12.78° C | 58% | 1003 hPa | - | - | 744 W/m² | - |
| 1777026678 | 11.67° C | 60% | 1003.2 hPa | - | - | 723 W/m² | - |
| 1777025777 | 11.11° C | 61% | 1003.1 hPa | - | - | 673 W/m² | - |
| 1777024876 | 10.56° C | 63% | 1003.2 hPa | - | - | 680 W/m² | - |
| 1777023975 | 10.56° C | 67% | 1003.3 hPa | - | - | 325 W/m² | - |
| 1777023074 | 11.11° C | 65% | 1003.3 hPa | - | - | 766 W/m² | - |
| 1777022173 | 10.56° C | 66% | 1003.2 hPa | - | - | 443 W/m² | - |
* Rain since midnight (hover to see other rain measurements)
** Current wind speed in m/s (hover to see current wind gust speed)